Location: Lake Almanor
(40.2485°N, 121.1442°W)
Time: 16:24:22
(UTC-08:00)

STARLINK-1083 - Pass Details

Date: 30 January 2020
Orbit: 348 x 351 km, 53.0° (Epoch: 17 February)

Event Time Altitude Azimuth Distance (km) Brightness Sun altitude
Rises 17:50:33 0° 319° (NW) 2,165 7.0 -6.2°
Reaches altitude 10° 17:53:03 10° 341° (NNW) 1,320 5.6 -6.7°
Maximum altitude 17:55:04 17° 25° (NNE) 1,000 4.6 -7.0°
Drops below altitude 10° 17:57:04 10° 68° (ENE) 1,317 4.9 -7.4°
Enters shadow 17:57:05 10° 68° (ENE) 1,319 4.9 -7.4°
